Location: Trebic
(49.2170°N, 15.8830°E)
Time: 04:13:34
(UTC+02:00)

Transit 2A Rocket - Pass Details

Date: 31 July 2019
Orbit: 590 x 913 km, 66.7° (Epoch: 24 August)

Event Time Altitude Azimuth Distance (km) Brightness Sun altitude
Rises 03:41:46 0° 255° (WSW) 3,466 - -13.8°
Exits shadow 03:44:06 - 264° (W) 2,684 7.4 -13.5°
Reaches altitude 10° 03:44:44 10° 268° (W) 2,489 7.3 -13.5°
Maximum altitude 03:49:31 27° 324° (NW) 1,545 6.7 -13.0°
Drops below altitude 10° 03:54:02 10° 21° (NNE) 2,325 8.7 -12.5°
Sets 03:56:43 0° 35° (NE) 3,194 10.2 -12.2°
